Year,Month,Day,Hour,Minute,Value (Times are PST for temperature in C)
2010,10,15,00,00,8.90
2010,10,15,00,01,8.90
2010,10,15,00,02,8.90
2010,10,15,00,03,8.90
2010,10,15,00,04,8.90
2010,10,15,00,05,8.90
2010,10,15,00,06,9.00
2010,10,15,00,07,9.00
2010,10,15,00,08,9.00
2010,10,15,00,09,9.00
2010,10,15,00,10,9.00
2010,10,15,00,11,9.00
2010,10,15,00,12,9.00
2010,10,15,00,13,9.00
2010,10,15,00,14,9.00
2010,10,15,00,15,9.00
2010,10,15,00,16,9.00
2010,10,15,00,17,9.00
2010,10,15,00,18,8.90
2010,10,15,00,19,8.90
2010,10,15,00,20,8.80
2010,10,15,00,21,8.80
2010,10,15,00,22,8.80
2010,10,15,00,23,8.70
2010,10,15,00,24,8.70
2010,10,15,00,25,8.60
2010,10,15,00,26,8.60
2010,10,15,00,27,8.50
2010,10,15,00,28,8.50
2010,10,15,00,29,8.40
2010,10,15,00,30,8.40
2010,10,15,00,31,8.30
2010,10,15,00,32,8.30
2010,10,15,00,33,8.20
2010,10,15,00,34,8.20
2010,10,15,00,35,8.10
2010,10,15,00,36,8.10
2010,10,15,00,37,8.00
2010,10,15,00,38,7.90
2010,10,15,00,39,7.90
2010,10,15,00,40,7.90
2010,10,15,00,41,7.80
2010,10,15,00,42,7.80
2010,10,15,00,43,7.80
2010,10,15,00,44,7.70
2010,10,15,00,45,7.70
2010,10,15,00,46,7.60
2010,10,15,00,47,7.60
2010,10,15,00,48,7.50
2010,10,15,00,49,7.40
2010,10,15,00,50,7.40
2010,10,15,00,51,7.30
2010,10,15,00,52,7.30
2010,10,15,00,53,7.20
2010,10,15,00,54,7.20
2010,10,15,00,55,7.20
2010,10,15,00,56,7.20
2010,10,15,00,57,7.20
2010,10,15,00,58,7.10
2010,10,15,00,59,7.10
2010,10,15,01,00,7.10
2010,10,15,01,01,7.10
2010,10,15,01,02,7.00
2010,10,15,01,03,7.00
2010,10,15,01,04,7.00
2010,10,15,01,05,7.00
2010,10,15,01,06,7.00
2010,10,15,01,07,7.00
2010,10,15,01,08,7.00
2010,10,15,01,09,7.00
2010,10,15,01,10,7.00
2010,10,15,01,11,7.00
2010,10,15,01,12,6.90
2010,10,15,01,13,6.90
2010,10,15,01,14,6.80
2010,10,15,01,15,6.80
2010,10,15,01,16,6.70
2010,10,15,01,17,6.70
2010,10,15,01,18,6.70
2010,10,15,01,19,6.70
2010,10,15,01,20,6.60
2010,10,15,01,21,6.60
2010,10,15,01,22,6.60
2010,10,15,01,23,6.60
2010,10,15,01,24,6.60
2010,10,15,01,25,6.60
2010,10,15,01,26,6.60
2010,10,15,01,27,6.60
2010,10,15,01,28,6.60
2010,10,15,01,29,6.50
2010,10,15,01,30,6.40
2010,10,15,01,31,6.50
2010,10,15,01,32,6.40
2010,10,15,01,33,6.50
2010,10,15,01,34,6.50
2010,10,15,01,35,6.50
2010,10,15,01,36,6.50
2010,10,15,01,37,6.50
2010,10,15,01,38,6.50
2010,10,15,01,39,6.50
2010,10,15,01,40,6.40
2010,10,15,01,41,6.40
2010,10,15,01,42,6.50
2010,10,15,01,43,6.50
2010,10,15,01,44,6.50
2010,10,15,01,45,6.50
2010,10,15,01,46,6.50
2010,10,15,01,47,6.40
2010,10,15,01,48,6.40
2010,10,15,01,49,6.30
2010,10,15,01,50,6.30
2010,10,15,01,51,6.20
2010,10,15,01,52,6.20
2010,10,15,01,53,6.10
2010,10,15,01,54,6.10
2010,10,15,01,55,6.10
2010,10,15,01,56,6.10
2010,10,15,01,57,6.10
2010,10,15,01,58,6.00
2010,10,15,01,59,6.10
2010,10,15,02,00,6.10
2010,10,15,02,01,6.10
2010,10,15,02,02,6.10
2010,10,15,02,03,6.10
2010,10,15,02,04,6.20
2010,10,15,02,05,6.20
2010,10,15,02,06,6.20
2010,10,15,02,07,6.20
2010,10,15,02,08,6.30
2010,10,15,02,09,6.30
2010,10,15,02,10,6.20
2010,10,15,02,11,6.10
2010,10,15,02,12,6.10
2010,10,15,02,13,6.00
2010,10,15,02,14,5.90
2010,10,15,02,15,5.80
2010,10,15,02,16,5.80
2010,10,15,02,17,5.80
2010,10,15,02,18,5.80
2010,10,15,02,19,5.80
2010,10,15,02,20,5.80
2010,10,15,02,21,5.80
2010,10,15,02,22,5.70
2010,10,15,02,23,5.60
2010,10,15,02,24,5.60
2010,10,15,02,25,5.50
2010,10,15,02,26,5.50
2010,10,15,02,27,5.40
2010,10,15,02,28,5.40
2010,10,15,02,29,5.30
2010,10,15,02,30,5.30
2010,10,15,02,31,5.30
2010,10,15,02,32,5.30
2010,10,15,02,33,5.40
2010,10,15,02,34,5.40
2010,10,15,02,35,5.40
2010,10,15,02,36,5.50
2010,10,15,02,37,5.50
2010,10,15,02,38,5.60
2010,10,15,02,39,5.70
2010,10,15,02,40,5.60
2010,10,15,02,41,5.50
2010,10,15,02,42,5.40
2010,10,15,02,43,5.40
2010,10,15,02,44,5.30
2010,10,15,02,45,5.20
2010,10,15,02,46,5.20
2010,10,15,02,47,5.10
2010,10,15,02,48,5.10
2010,10,15,02,49,5.00
2010,10,15,02,50,5.00
2010,10,15,02,51,4.90
2010,10,15,02,52,4.90
2010,10,15,02,53,4.90
2010,10,15,02,54,4.80
2010,10,15,02,55,4.80
2010,10,15,02,56,4.70
2010,10,15,02,57,4.70
2010,10,15,02,58,4.70
2010,10,15,02,59,4.70
2010,10,15,03,00,4.70
2010,10,15,03,01,4.60
2010,10,15,03,02,4.60
2010,10,15,03,03,4.60
2010,10,15,03,04,4.50
2010,10,15,03,05,4.50
2010,10,15,03,06,4.60
2010,10,15,03,07,4.60
2010,10,15,03,08,4.60
2010,10,15,03,09,4.60
2010,10,15,03,10,4.60
2010,10,15,03,11,4.60
2010,10,15,03,12,4.60
2010,10,15,03,13,4.60
2010,10,15,03,14,4.60
2010,10,15,03,15,4.60
2010,10,15,03,16,4.60
2010,10,15,03,17,4.60
2010,10,15,03,18,4.60
2010,10,15,03,19,4.60
2010,10,15,03,20,4.60
2010,10,15,03,21,4.80
2010,10,15,03,22,4.90
2010,10,15,03,23,5.00
2010,10,15,03,24,5.00
2010,10,15,03,25,5.00
2010,10,15,03,26,5.10
2010,10,15,03,27,5.20
2010,10,15,03,28,5.30
2010,10,15,03,29,5.50
2010,10,15,03,30,5.60
2010,10,15,03,31,5.70
2010,10,15,03,32,5.80
2010,10,15,03,33,5.90
2010,10,15,03,34,6.00
2010,10,15,03,35,6.00
2010,10,15,03,36,6.00
2010,10,15,03,37,6.00
2010,10,15,03,38,6.10
2010,10,15,03,39,6.10
2010,10,15,03,40,6.00
2010,10,15,03,41,6.00
2010,10,15,03,42,5.90
2010,10,15,03,43,5.90
2010,10,15,03,44,5.90
2010,10,15,03,45,5.80
2010,10,15,03,46,5.80
2010,10,15,03,47,5.80
2010,10,15,03,48,5.70
2010,10,15,03,49,5.70
2010,10,15,03,50,5.70
2010,10,15,03,51,5.70
2010,10,15,03,52,5.70
2010,10,15,03,53,5.80
2010,10,15,03,54,5.80
2010,10,15,03,55,5.80
2010,10,15,03,56,5.80
2010,10,15,03,57,5.80
2010,10,15,03,58,5.80
2010,10,15,03,59,5.80
2010,10,15,04,00,5.80
2010,10,15,04,01,5.70
2010,10,15,04,02,5.80
2010,10,15,04,03,5.80
2010,10,15,04,04,5.70
2010,10,15,04,05,5.60
2010,10,15,04,06,5.60
2010,10,15,04,07,5.60
2010,10,15,04,08,5.60
2010,10,15,04,09,5.60
2010,10,15,04,10,5.50
2010,10,15,04,11,5.50
2010,10,15,04,12,5.40
2010,10,15,04,13,5.30
2010,10,15,04,14,5.20
2010,10,15,04,15,5.20
2010,10,15,04,16,5.10
2010,10,15,04,17,5.00
2010,10,15,04,18,4.90
2010,10,15,04,19,4.90
2010,10,15,04,20,4.80
2010,10,15,04,21,4.80
2010,10,15,04,22,4.70
2010,10,15,04,23,4.70
2010,10,15,04,24,4.70
2010,10,15,04,25,4.70
2010,10,15,04,26,4.70
2010,10,15,04,27,4.70
2010,10,15,04,28,4.70
2010,10,15,04,29,4.70
2010,10,15,04,30,4.60
2010,10,15,04,31,4.60
2010,10,15,04,32,4.70
2010,10,15,04,33,4.70
2010,10,15,04,34,4.80
2010,10,15,04,35,4.80
2010,10,15,04,36,4.90
2010,10,15,04,37,5.00
2010,10,15,04,38,5.00
2010,10,15,04,39,5.10
2010,10,15,04,40,5.10
2010,10,15,04,41,5.10
2010,10,15,04,42,5.10
2010,10,15,04,43,5.10
2010,10,15,04,44,5.00
2010,10,15,04,45,5.00
2010,10,15,04,46,5.00
2010,10,15,04,47,4.90
2010,10,15,04,48,4.90
2010,10,15,04,49,4.90
2010,10,15,04,50,4.90
2010,10,15,04,51,4.90
2010,10,15,04,52,5.00
2010,10,15,04,53,5.10
2010,10,15,04,54,5.10
2010,10,15,04,55,5.10
2010,10,15,04,56,5.10
2010,10,15,04,57,5.10
2010,10,15,04,58,5.10
2010,10,15,04,59,5.10
2010,10,15,05,00,5.10
2010,10,15,05,01,5.10
2010,10,15,05,02,5.10
2010,10,15,05,03,5.10
2010,10,15,05,04,5.10
2010,10,15,05,05,5.10
2010,10,15,05,06,5.10
2010,10,15,05,07,5.10
2010,10,15,05,08,5.10
2010,10,15,05,09,5.10
2010,10,15,05,10,5.10
2010,10,15,05,11,5.20
2010,10,15,05,12,5.30
2010,10,15,05,13,5.40
2010,10,15,05,14,5.50
2010,10,15,05,15,5.60
2010,10,15,05,16,5.60
2010,10,15,05,17,5.50
2010,10,15,05,18,5.30
2010,10,15,05,19,5.10
2010,10,15,05,20,4.90
2010,10,15,05,21,4.70
2010,10,15,05,22,4.60
2010,10,15,05,23,4.50
2010,10,15,05,24,4.40
2010,10,15,05,25,4.30
2010,10,15,05,26,4.30
2010,10,15,05,27,4.30
2010,10,15,05,28,4.30
2010,10,15,05,29,4.30
2010,10,15,05,30,4.20
2010,10,15,05,31,4.20
2010,10,15,05,32,4.20
2010,10,15,05,33,4.10
2010,10,15,05,34,4.20
2010,10,15,05,35,4.20
2010,10,15,05,36,4.20
2010,10,15,05,37,4.20
2010,10,15,05,38,4.20
2010,10,15,05,39,4.20
2010,10,15,05,40,4.30
2010,10,15,05,41,4.30
2010,10,15,05,42,4.30
2010,10,15,05,43,4.30
2010,10,15,05,44,4.30
2010,10,15,05,45,4.40
2010,10,15,05,46,4.40
2010,10,15,05,47,4.40
2010,10,15,05,48,4.30
2010,10,15,05,49,4.30
2010,10,15,05,50,4.30
2010,10,15,05,51,4.30
2010,10,15,05,52,4.30
2010,10,15,05,53,4.40
2010,10,15,05,54,4.40
2010,10,15,05,55,4.40
2010,10,15,05,56,4.40
2010,10,15,05,57,4.40
2010,10,15,05,58,4.40
2010,10,15,05,59,4.40
2010,10,15,06,00,4.30
2010,10,15,06,01,4.30
2010,10,15,06,02,4.30
2010,10,15,06,03,4.30
2010,10,15,06,04,4.20
2010,10,15,06,05,4.20
2010,10,15,06,06,4.10
2010,10,15,06,07,4.10
2010,10,15,06,08,4.10
2010,10,15,06,09,4.10
2010,10,15,06,10,4.10
2010,10,15,06,11,4.10
2010,10,15,06,12,4.10
2010,10,15,06,13,4.10
2010,10,15,06,14,4.10
2010,10,15,06,15,4.00
2010,10,15,06,16,4.00
2010,10,15,06,17,4.10
2010,10,15,06,18,4.10
2010,10,15,06,19,4.20
2010,10,15,06,20,4.20
2010,10,15,06,21,4.20
2010,10,15,06,22,4.30
2010,10,15,06,23,4.30
2010,10,15,06,24,4.30
2010,10,15,06,25,4.40
2010,10,15,06,26,4.40
2010,10,15,06,27,4.40
2010,10,15,06,28,4.40
2010,10,15,06,29,4.40
2010,10,15,06,30,4.40
2010,10,15,06,31,4.40
2010,10,15,06,32,4.40
2010,10,15,06,33,4.40
2010,10,15,06,34,4.40
2010,10,15,06,35,4.40
2010,10,15,06,36,4.40
2010,10,15,06,37,4.40
2010,10,15,06,38,4.40
2010,10,15,06,39,4.40
2010,10,15,06,40,4.30
2010,10,15,06,41,4.30
2010,10,15,06,42,4.30
2010,10,15,06,43,4.20
2010,10,15,06,44,4.20
2010,10,15,06,45,4.20
2010,10,15,06,46,4.20
2010,10,15,06,47,4.20
2010,10,15,06,48,4.20
2010,10,15,06,49,4.20
2010,10,15,06,50,4.20
2010,10,15,06,51,4.10
2010,10,15,06,52,4.10
2010,10,15,06,53,4.10
2010,10,15,06,54,4.10
2010,10,15,06,55,4.00
2010,10,15,06,56,4.00
2010,10,15,06,57,4.00
2010,10,15,06,58,4.10
2010,10,15,06,59,4.10
2010,10,15,07,00,4.10
2010,10,15,07,01,4.10
2010,10,15,07,02,4.10
2010,10,15,07,03,4.10
2010,10,15,07,04,4.10
2010,10,15,07,05,4.10
2010,10,15,07,06,4.00
2010,10,15,07,07,4.00
2010,10,15,07,08,4.00
2010,10,15,07,09,4.00
2010,10,15,07,10,4.00
2010,10,15,07,11,4.00
2010,10,15,07,12,4.00
2010,10,15,07,13,4.00
2010,10,15,07,14,4.10
2010,10,15,07,15,4.10
2010,10,15,07,16,4.10
2010,10,15,07,17,4.10
2010,10,15,07,18,4.10
2010,10,15,07,19,4.10
2010,10,15,07,20,4.10
2010,10,15,07,21,4.10
2010,10,15,07,22,4.10
2010,10,15,07,23,4.00
2010,10,15,07,24,4.00
2010,10,15,07,25,4.00
2010,10,15,07,26,3.90
2010,10,15,07,27,3.90
2010,10,15,07,28,3.90
2010,10,15,07,29,3.90
2010,10,15,07,30,3.90
2010,10,15,07,31,3.90
2010,10,15,07,32,3.90
2010,10,15,07,33,3.80
2010,10,15,07,34,3.80
2010,10,15,07,35,3.80
2010,10,15,07,36,3.80
2010,10,15,07,37,3.70
2010,10,15,07,38,3.70
2010,10,15,07,39,3.70
2010,10,15,07,40,3.60
2010,10,15,07,41,3.60
2010,10,15,07,42,3.60
2010,10,15,07,43,3.60
2010,10,15,07,44,3.60
2010,10,15,07,45,3.60
2010,10,15,07,46,3.60
2010,10,15,07,47,3.60
2010,10,15,07,48,3.60
2010,10,15,07,49,3.60
2010,10,15,07,50,3.60
2010,10,15,07,51,3.60
2010,10,15,07,52,3.60
2010,10,15,07,53,3.50
2010,10,15,07,54,3.50
2010,10,15,07,55,3.50
2010,10,15,07,56,3.50
2010,10,15,07,57,3.50
2010,10,15,07,58,3.50
2010,10,15,07,59,3.50
2010,10,15,08,00,3.50
2010,10,15,08,01,3.50
2010,10,15,08,02,3.50
2010,10,15,08,03,3.50
2010,10,15,08,04,3.50
2010,10,15,08,05,3.50
2010,10,15,08,06,3.50
2010,10,15,08,07,3.50
2010,10,15,08,08,3.50
2010,10,15,08,09,3.50
2010,10,15,08,10,3.60
2010,10,15,08,11,3.50
2010,10,15,08,12,3.50
2010,10,15,08,13,3.50
2010,10,15,08,14,3.40
2010,10,15,08,15,3.40
2010,10,15,08,16,3.40
2010,10,15,08,17,3.40
2010,10,15,08,18,3.30
2010,10,15,08,19,3.30
2010,10,15,08,20,3.30
2010,10,15,08,21,3.30
2010,10,15,08,22,3.30
2010,10,15,08,23,3.30
2010,10,15,08,24,3.30
2010,10,15,08,25,3.30
2010,10,15,08,26,3.30
2010,10,15,08,27,3.30
2010,10,15,08,28,3.20
2010,10,15,08,29,3.20
2010,10,15,08,30,3.20
2010,10,15,08,31,3.20
2010,10,15,08,32,3.30
2010,10,15,08,33,3.30
2010,10,15,08,34,3.30
2010,10,15,08,35,3.30
2010,10,15,08,36,3.40
2010,10,15,08,37,3.40
2010,10,15,08,38,3.40
2010,10,15,08,39,3.40
2010,10,15,08,40,3.40
2010,10,15,08,41,3.50
2010,10,15,08,42,3.50
2010,10,15,08,43,3.50
2010,10,15,08,44,3.60
2010,10,15,08,45,3.60
2010,10,15,08,46,3.60
2010,10,15,08,47,3.60
2010,10,15,08,48,3.60
2010,10,15,08,49,3.60
2010,10,15,08,50,3.60
2010,10,15,08,51,3.60
2010,10,15,08,52,3.60
2010,10,15,08,53,3.60
2010,10,15,08,54,3.60
2010,10,15,08,55,3.60
2010,10,15,08,56,3.60
2010,10,15,08,57,3.60
2010,10,15,08,58,3.60
2010,10,15,08,59,3.60
2010,10,15,09,00,3.60
2010,10,15,09,01,3.70
2010,10,15,09,02,3.70
2010,10,15,09,03,3.70
2010,10,15,09,04,3.80
2010,10,15,09,05,3.80
2010,10,15,09,06,3.90
2010,10,15,09,07,4.00
2010,10,15,09,08,4.00
2010,10,15,09,09,4.00
2010,10,15,09,10,4.10
2010,10,15,09,11,4.10
2010,10,15,09,12,4.20
2010,10,15,09,13,4.20
2010,10,15,09,14,4.30
2010,10,15,09,15,4.30
2010,10,15,09,16,4.30
2010,10,15,09,17,4.30
2010,10,15,09,18,4.40
2010,10,15,09,19,4.40
2010,10,15,09,20,4.40
2010,10,15,09,21,4.40
2010,10,15,09,22,4.50
2010,10,15,09,23,4.50
2010,10,15,09,24,4.50
2010,10,15,09,25,4.60
2010,10,15,09,26,4.60
2010,10,15,09,27,4.70
2010,10,15,09,28,4.70
2010,10,15,09,29,4.70
2010,10,15,09,30,4.70
2010,10,15,09,31,4.80
2010,10,15,09,32,4.80
2010,10,15,09,33,4.80
2010,10,15,09,34,4.80
2010,10,15,09,35,4.90
2010,10,15,09,36,4.90
2010,10,15,09,37,4.90
2010,10,15,09,38,5.00
2010,10,15,09,39,5.00
2010,10,15,09,40,5.10
2010,10,15,09,41,5.10
2010,10,15,09,42,5.10
2010,10,15,09,43,5.10
2010,10,15,09,44,5.20
2010,10,15,09,45,5.20
2010,10,15,09,46,5.20
2010,10,15,09,47,5.30
2010,10,15,09,48,5.30
2010,10,15,09,49,5.30
2010,10,15,09,50,5.40
2010,10,15,09,51,5.40
2010,10,15,09,52,5.40
2010,10,15,09,53,5.40
2010,10,15,09,54,5.50
2010,10,15,09,55,5.50
2010,10,15,09,56,5.60
2010,10,15,09,57,5.60
2010,10,15,09,58,5.60
2010,10,15,09,59,5.60
2010,10,15,10,00,5.60
2010,10,15,10,01,5.60
2010,10,15,10,02,5.60
2010,10,15,10,03,5.70
2010,10,15,10,04,5.70
2010,10,15,10,05,5.70
2010,10,15,10,06,5.70
2010,10,15,10,07,5.80
2010,10,15,10,08,5.80
2010,10,15,10,09,5.80
2010,10,15,10,10,5.80
2010,10,15,10,11,5.90
2010,10,15,10,12,5.90
2010,10,15,10,13,6.00
2010,10,15,10,14,6.00
2010,10,15,10,15,6.10
2010,10,15,10,16,6.10
2010,10,15,10,17,6.20
2010,10,15,10,18,6.30
2010,10,15,10,19,6.30
2010,10,15,10,20,6.40
2010,10,15,10,21,6.40
2010,10,15,10,22,6.50
2010,10,15,10,23,6.50
2010,10,15,10,24,6.60
2010,10,15,10,25,6.60
2010,10,15,10,26,6.70
2010,10,15,10,27,6.80
2010,10,15,10,28,6.90
2010,10,15,10,29,7.00
2010,10,15,10,30,7.00
2010,10,15,10,31,7.10
2010,10,15,10,32,7.10
2010,10,15,10,33,7.20
2010,10,15,10,34,7.20
2010,10,15,10,35,7.20
2010,10,15,10,36,7.20
2010,10,15,10,37,7.30
2010,10,15,10,38,7.40
2010,10,15,10,39,7.40
2010,10,15,10,40,7.50
2010,10,15,10,41,7.50
2010,10,15,10,42,7.60
2010,10,15,10,43,7.60
2010,10,15,10,44,7.70
2010,10,15,10,45,7.70
2010,10,15,10,46,7.70
2010,10,15,10,47,7.80
2010,10,15,10,48,7.80
2010,10,15,10,49,7.80
2010,10,15,10,50,7.90
2010,10,15,10,51,7.90
2010,10,15,10,52,8.00
2010,10,15,10,53,8.10
2010,10,15,10,54,8.10
2010,10,15,10,55,8.20
2010,10,15,10,56,8.30
2010,10,15,10,57,8.40
2010,10,15,10,58,8.50
2010,10,15,10,59,8.60
2010,10,15,11,00,8.60
2010,10,15,11,01,8.70
2010,10,15,11,02,8.80
2010,10,15,11,03,8.90
2010,10,15,11,04,8.90
2010,10,15,11,05,9.00
2010,10,15,11,06,9.10
2010,10,15,11,07,9.20
2010,10,15,11,08,9.30
2010,10,15,11,09,9.50
2010,10,15,11,10,9.50
2010,10,15,11,11,9.60
2010,10,15,11,12,9.60
2010,10,15,11,13,9.70
2010,10,15,11,14,9.70
2010,10,15,11,15,9.70
2010,10,15,11,16,9.70
2010,10,15,11,17,9.70
2010,10,15,11,18,9.80
2010,10,15,11,19,9.90
2010,10,15,11,20,10.00
2010,10,15,11,21,10.10
2010,10,15,11,22,10.20
2010,10,15,11,23,10.30
2010,10,15,11,24,10.40
2010,10,15,11,25,10.40
2010,10,15,11,26,10.50
2010,10,15,11,27,10.60
2010,10,15,11,28,10.60
2010,10,15,11,29,10.70
2010,10,15,11,30,10.80
2010,10,15,11,31,10.90
2010,10,15,11,32,10.90
2010,10,15,11,33,11.00
2010,10,15,11,34,11.10
2010,10,15,11,35,11.20
2010,10,15,11,36,11.20
2010,10,15,11,37,11.30
2010,10,15,11,38,11.30
2010,10,15,11,39,11.40
2010,10,15,11,40,11.40
2010,10,15,11,41,11.40
2010,10,15,11,42,11.40
2010,10,15,11,43,11.30
2010,10,15,11,44,11.30
2010,10,15,11,45,11.30
2010,10,15,11,46,11.30
2010,10,15,11,47,11.30
2010,10,15,11,48,11.20
2010,10,15,11,49,11.20
2010,10,15,11,50,11.10
2010,10,15,11,51,11.10
2010,10,15,11,52,11.10
2010,10,15,11,53,11.10
2010,10,15,11,54,11.10
2010,10,15,11,55,11.20
2010,10,15,11,56,11.20
2010,10,15,11,57,11.30
2010,10,15,11,58,11.30
2010,10,15,11,59,11.30
2010,10,15,12,00,11.30
2010,10,15,12,01,11.40
2010,10,15,12,02,11.40
2010,10,15,12,03,11.50
2010,10,15,12,04,11.50
2010,10,15,12,05,11.50
2010,10,15,12,06,11.50
2010,10,15,12,07,11.50
2010,10,15,12,08,11.50
2010,10,15,12,09,11.50
2010,10,15,12,10,11.60
2010,10,15,12,11,11.60
2010,10,15,12,12,11.60
2010,10,15,12,13,11.60
2010,10,15,12,14,11.60
2010,10,15,12,15,11.50
2010,10,15,12,16,11.50
2010,10,15,12,17,11.40
2010,10,15,12,18,11.40
2010,10,15,12,19,11.30
2010,10,15,12,20,11.30
2010,10,15,12,21,11.50
2010,10,15,12,22,11.60
2010,10,15,12,23,11.70
2010,10,15,12,24,11.70
2010,10,15,12,25,11.80
2010,10,15,12,26,11.90
2010,10,15,12,27,11.90
2010,10,15,12,28,12.00
2010,10,15,12,29,12.00
2010,10,15,12,30,12.10
2010,10,15,12,31,12.10
2010,10,15,12,32,12.10
2010,10,15,12,33,12.10
2010,10,15,12,34,12.00
2010,10,15,12,35,12.00
2010,10,15,12,36,12.00
2010,10,15,12,37,12.00
2010,10,15,12,38,12.00
2010,10,15,12,39,12.00
2010,10,15,12,40,12.00
2010,10,15,12,41,12.00
2010,10,15,12,42,11.90
2010,10,15,12,43,11.90
2010,10,15,12,44,12.00
2010,10,15,12,45,12.10
2010,10,15,12,46,12.10
2010,10,15,12,47,12.10
2010,10,15,12,48,12.20
2010,10,15,12,49,12.30
2010,10,15,12,50,12.30
2010,10,15,12,51,12.30
2010,10,15,12,52,12.20
2010,10,15,12,53,12.10
2010,10,15,12,54,12.10
2010,10,15,12,55,12.10
2010,10,15,12,56,12.10
2010,10,15,12,57,12.10
2010,10,15,12,58,12.10
2010,10,15,12,59,12.10
2010,10,15,13,00,12.10
2010,10,15,13,01,12.10
2010,10,15,13,02,12.10
2010,10,15,13,03,12.10
2010,10,15,13,04,12.10
2010,10,15,13,05,12.10
2010,10,15,13,06,12.10
2010,10,15,13,07,12.10
2010,10,15,13,08,12.10
2010,10,15,13,09,12.00
2010,10,15,13,10,12.10
2010,10,15,13,11,12.10
2010,10,15,13,12,12.20
2010,10,15,13,13,12.30
2010,10,15,13,14,12.30
2010,10,15,13,15,12.30
2010,10,15,13,16,12.30
2010,10,15,13,17,12.30
2010,10,15,13,18,12.30
2010,10,15,13,19,12.30
2010,10,15,13,20,12.30
2010,10,15,13,21,12.30
2010,10,15,13,22,12.40
2010,10,15,13,23,12.30
2010,10,15,13,24,12.30
2010,10,15,13,25,12.30
2010,10,15,13,26,12.30
2010,10,15,13,27,12.30
2010,10,15,13,28,12.20
2010,10,15,13,29,12.10
2010,10,15,13,30,12.00
2010,10,15,13,31,11.90
2010,10,15,13,32,11.90
2010,10,15,13,33,11.80
2010,10,15,13,34,11.80
2010,10,15,13,35,11.80
2010,10,15,13,36,11.80
2010,10,15,13,37,11.90
2010,10,15,13,38,12.00
2010,10,15,13,39,12.10
2010,10,15,13,40,12.10
2010,10,15,13,41,12.20
2010,10,15,13,42,12.30
2010,10,15,13,43,12.30
2010,10,15,13,44,12.30
2010,10,15,13,45,12.20
2010,10,15,13,46,12.10
2010,10,15,13,47,11.90
2010,10,15,13,48,11.80
2010,10,15,13,49,11.80
2010,10,15,13,50,11.90
2010,10,15,13,51,11.90
2010,10,15,13,52,11.90
2010,10,15,13,53,11.90
2010,10,15,13,54,12.00
2010,10,15,13,55,12.10
2010,10,15,13,56,12.20
2010,10,15,13,57,12.20
2010,10,15,13,58,12.20
2010,10,15,13,59,12.20
2010,10,15,14,00,12.20
2010,10,15,14,01,12.20
2010,10,15,14,02,12.20
2010,10,15,14,03,12.20
2010,10,15,14,04,12.20
2010,10,15,14,05,12.20
2010,10,15,14,06,12.20
2010,10,15,14,07,12.20
2010,10,15,14,08,12.10
2010,10,15,14,09,12.00
2010,10,15,14,10,12.00
2010,10,15,14,11,12.00
2010,10,15,14,12,12.00
2010,10,15,14,13,12.00
2010,10,15,14,14,11.90
2010,10,15,14,15,11.90
2010,10,15,14,16,11.90
2010,10,15,14,17,11.80
2010,10,15,14,18,11.80
2010,10,15,14,19,11.90
2010,10,15,14,20,11.90
2010,10,15,14,21,11.90
2010,10,15,14,22,11.90
2010,10,15,14,23,12.00
2010,10,15,14,24,12.00
2010,10,15,14,25,12.00
2010,10,15,14,26,12.10
2010,10,15,14,27,12.10
2010,10,15,14,28,12.10
2010,10,15,14,29,12.10
2010,10,15,14,30,12.00
2010,10,15,14,31,11.90
2010,10,15,14,32,11.90
2010,10,15,14,33,11.90
2010,10,15,14,34,11.80
2010,10,15,14,35,11.80
2010,10,15,14,36,11.80
2010,10,15,14,37,11.80
2010,10,15,14,38,11.80
2010,10,15,14,39,11.80
2010,10,15,14,40,11.90
2010,10,15,14,41,11.90
2010,10,15,14,42,11.80
2010,10,15,14,43,11.80
2010,10,15,14,44,11.80
2010,10,15,14,45,11.80
2010,10,15,14,46,11.80
2010,10,15,14,47,11.80
2010,10,15,14,48,11.80
2010,10,15,14,49,11.90
2010,10,15,14,50,11.90
2010,10,15,14,51,12.00
2010,10,15,14,52,12.10
2010,10,15,14,53,12.10
2010,10,15,14,54,12.10
2010,10,15,14,55,12.10
2010,10,15,14,56,12.20
2010,10,15,14,57,12.30
2010,10,15,14,58,12.50
2010,10,15,14,59,12.60
2010,10,15,15,00,12.70
2010,10,15,15,01,12.80
2010,10,15,15,02,12.80
2010,10,15,15,03,12.80
2010,10,15,15,04,12.80
2010,10,15,15,05,12.70
2010,10,15,15,06,12.60
2010,10,15,15,07,12.60
2010,10,15,15,08,12.50
2010,10,15,15,09,12.50
2010,10,15,15,10,12.50
2010,10,15,15,11,12.60
2010,10,15,15,12,12.60
2010,10,15,15,13,12.60
2010,10,15,15,14,12.60
2010,10,15,15,15,12.60
2010,10,15,15,16,12.60
2010,10,15,15,17,12.50
2010,10,15,15,18,12.50
2010,10,15,15,19,12.50
2010,10,15,15,20,12.40
2010,10,15,15,21,12.40
2010,10,15,15,22,12.30
2010,10,15,15,23,12.30
2010,10,15,15,24,12.30
2010,10,15,15,25,12.30
2010,10,15,15,26,12.20
2010,10,15,15,27,12.10
2010,10,15,15,28,12.10
2010,10,15,15,29,12.10
2010,10,15,15,30,12.10
2010,10,15,15,31,12.10
2010,10,15,15,32,12.10
2010,10,15,15,33,12.10
2010,10,15,15,34,12.10
2010,10,15,15,35,12.10
2010,10,15,15,36,12.10
2010,10,15,15,37,12.10
2010,10,15,15,38,12.00
2010,10,15,15,39,12.00
2010,10,15,15,40,12.00
2010,10,15,15,41,12.00
2010,10,15,15,42,11.90
2010,10,15,15,43,11.80
2010,10,15,15,44,11.80
2010,10,15,15,45,11.90
2010,10,15,15,46,11.90
2010,10,15,15,47,11.90
2010,10,15,15,48,11.90
2010,10,15,15,49,11.90
2010,10,15,15,50,11.90
2010,10,15,15,51,11.90
2010,10,15,15,52,12.00
2010,10,15,15,53,12.00
2010,10,15,15,54,12.10
2010,10,15,15,55,12.10
2010,10,15,15,56,12.20
2010,10,15,15,57,12.20
2010,10,15,15,58,12.10
2010,10,15,15,59,12.20
2010,10,15,16,00,12.20
2010,10,15,16,01,12.30
2010,10,15,16,02,12.40
2010,10,15,16,03,12.40
2010,10,15,16,04,12.50
2010,10,15,16,05,12.40
2010,10,15,16,06,12.40
2010,10,15,16,07,12.40
2010,10,15,16,08,12.30
2010,10,15,16,09,12.30
2010,10,15,16,10,12.30
2010,10,15,16,11,12.20
2010,10,15,16,12,12.20
2010,10,15,16,13,12.10
2010,10,15,16,14,12.00
2010,10,15,16,15,12.00
2010,10,15,16,16,12.00
2010,10,15,16,17,12.00
2010,10,15,16,18,12.00
2010,10,15,16,19,12.00
2010,10,15,16,20,12.00
2010,10,15,16,21,11.90
2010,10,15,16,22,12.00
2010,10,15,16,23,12.00
2010,10,15,16,24,12.10
2010,10,15,16,25,12.10
2010,10,15,16,26,12.20
2010,10,15,16,27,12.20
2010,10,15,16,28,12.20
2010,10,15,16,29,12.20
2010,10,15,16,30,12.20
2010,10,15,16,31,12.20
2010,10,15,16,32,12.20
2010,10,15,16,33,12.20
2010,10,15,16,34,12.20
2010,10,15,16,35,12.20
2010,10,15,16,36,12.30
2010,10,15,16,37,12.30
2010,10,15,16,38,12.40
2010,10,15,16,39,12.30
2010,10,15,16,40,12.30
2010,10,15,16,41,12.20
2010,10,15,16,42,12.20
2010,10,15,16,43,12.20
2010,10,15,16,44,12.20
2010,10,15,16,45,12.20
2010,10,15,16,46,12.20
2010,10,15,16,47,12.20
2010,10,15,16,48,12.30
2010,10,15,16,49,12.20
2010,10,15,16,50,12.20
2010,10,15,16,51,12.20
2010,10,15,16,52,12.10
2010,10,15,16,53,12.10
2010,10,15,16,54,12.10
2010,10,15,16,55,12.10
2010,10,15,16,56,12.10
2010,10,15,16,57,12.10
2010,10,15,16,58,12.10
2010,10,15,16,59,12.10
2010,10,15,17,00,12.10
2010,10,15,17,01,12.10
2010,10,15,17,02,12.00
2010,10,15,17,03,12.00
2010,10,15,17,04,12.00
2010,10,15,17,05,12.10
2010,10,15,17,06,12.00
2010,10,15,17,07,12.00
2010,10,15,17,08,12.00
2010,10,15,17,09,12.00
2010,10,15,17,10,11.90
2010,10,15,17,11,11.90
2010,10,15,17,12,11.90
2010,10,15,17,13,11.90
2010,10,15,17,14,11.80
2010,10,15,17,15,11.80
2010,10,15,17,16,11.70
2010,10,15,17,17,11.70
2010,10,15,17,18,11.70
2010,10,15,17,19,11.60
2010,10,15,17,20,11.60
2010,10,15,17,21,11.60
2010,10,15,17,22,11.50
2010,10,15,17,23,11.40
2010,10,15,17,24,11.30
2010,10,15,17,25,11.30
2010,10,15,17,26,11.20
2010,10,15,17,27,11.20
2010,10,15,17,28,11.10
2010,10,15,17,29,11.10
2010,10,15,17,30,11.00
2010,10,15,17,31,11.00
2010,10,15,17,32,10.90
2010,10,15,17,33,10.90
2010,10,15,17,34,10.80
2010,10,15,17,35,10.80
2010,10,15,17,36,10.80
2010,10,15,17,37,10.80
2010,10,15,17,38,10.70
2010,10,15,17,39,10.70
2010,10,15,17,40,10.70
2010,10,15,17,41,10.60
2010,10,15,17,42,10.60
2010,10,15,17,43,10.60
2010,10,15,17,44,10.60
2010,10,15,17,45,10.50
2010,10,15,17,46,10.50
2010,10,15,17,47,10.50
2010,10,15,17,48,10.50
2010,10,15,17,49,10.40